Weather History for New Orleans Lakefront, LA

Change the Weather History Date:

Monday, September 16, 2013

  Actual Average Record
Temperature  
Mean Temperature 84 °F 80 °F  
Max Temperature 92 °F 88 °F 96 °F (1990)
Min Temperature 75 °F 72 °F 63 °F (1969)
Degree Days  
Heating Degree Days 0 0  
Month to date heating degree days 0 0  
Since 1 July heating degree days 0 0  
Cooling Degree Days 19 15  
Month to date cooling degree days 291 261  
Year to date cooling degree days 2427 2507  
Growing Degree Days 35 (Base 50)    
Moisture  
Dew Point 74 °F    
Average Humidity 73    
Maximum Humidity 94    
Minimum Humidity 52    
Precipitation  
Precipitation 0.00 in 0.16 in 3.58 in (1954)
Month to date precipitation 3.42 2.96  
Year to date precipitation 53.73 47.17  
Snow  
Snow 0.00 in - - ()
Month to date snowfall 0.0  
Since 1 July snowfall 0.0  
Since 1 September snowfall 0.0  
Snow Depth 0.00 in    
Sea Level Pressure  
Sea Level Pressure 30.02 in    
Wind  
Wind Speed 7 mph (East)    
Max Wind Speed 18 mph    
Max Gust Speed 22 mph    
Visibility 10 miles    
Events      
T = Trace of Precipitation, MM = Missing Value Source: NWS Daily Summary

Daily Weather History Graph

Daily Weather History Graph

Search for Another Location

Airport:

Trip Planner

Search our weather history database for the weather conditions in past years. The results will help you decide how hot, cold, wet, or windy it might be!

Date:

Astronomy

Sep. 16, 2013 Rise Set
Actual Time 6:45 AM CDT 7:03 PM CDT
Civil Twilight 6:21 AM CDT 7:27 PM CDT
Nautical Twilight 5:53 AM CDT 7:55 PM CDT
Astronomical Twilight 5:24 AM CDT 8:24 PM CDT
Moon 5:04 PM CDT (9/16) 3:42 AM CDT (9/16)
Length of Visible Light 13h 06m
Length of Day
12h 18m
Waxing Gibbous, 90% of the Moon is Illuminated
Sep 16
Waxing Gibbous
Sep 19
Full
Sep 26
Last Quarter
Oct 4
New
Oct 11
First Quarter

Hourly Weather History & Observations

Time (CDT) Temp. Heat Index Dew Point Humidity Pressure Visibility Wind Dir Wind Speed Gust Speed Precip Events Conditions
12:53 AM 81.0 °F 86.2 °F 73.9 °F 79% 30.03 in 10.0 mi SE 6.9 mph - N/A   Clear
1:53 AM 80.1 °F 84.5 °F 73.9 °F 81% 30.03 in 10.0 mi SSE 3.5 mph - N/A   Clear
2:53 AM 80.1 °F 85.1 °F 75.0 °F 85% 30.01 in 10.0 mi ESE 3.5 mph - N/A   Clear
3:53 AM 80.1 °F 85.1 °F 75.0 °F 85% 30.01 in 10.0 mi South 5.8 mph - N/A   Scattered Clouds
4:53 AM 81.0 °F 86.2 °F 73.9 °F 79% 30.01 in 10.0 mi Calm Calm - N/A   Scattered Clouds
5:53 AM 80.1 °F 85.1 °F 75.0 °F 85% 30.01 in 10.0 mi East 3.5 mph - N/A   Clear
6:53 AM 82.0 °F 89.4 °F 75.9 °F 82% 30.00 in 10.0 mi NNE 9.2 mph - N/A   Clear
7:53 AM 82.9 °F 91.8 °F 77.0 °F 82% 30.02 in 10.0 mi NE 11.5 mph - N/A   Clear
8:53 AM 84.0 °F 92.6 °F 75.9 °F 76% 30.04 in 10.0 mi ENE 10.4 mph - N/A   Clear
9:53 AM 84.9 °F 93.3 °F 75.0 °F 72% 30.06 in 10.0 mi East 9.2 mph - N/A   Clear
10:53 AM 86.0 °F 93.8 °F 73.9 °F 67% 30.06 in 10.0 mi East 11.5 mph - N/A   Scattered Clouds
11:53 AM 87.1 °F 95.4 °F 73.9 °F 65% 30.07 in 10.0 mi East 10.4 mph - N/A   Clear
12:53 PM 89.1 °F 99.1 °F 75.0 °F 63% 30.05 in 10.0 mi ENE 13.8 mph - N/A   Clear
1:53 PM 89.1 °F 100.2 °F 75.9 °F 65% 30.03 in 10.0 mi ENE 13.8 mph - N/A   Clear
2:53 PM 89.1 °F 98.0 °F 73.9 °F 61% 30.01 in 10.0 mi ENE 12.7 mph - N/A   Scattered Clouds
3:53 PM 90.0 °F 97.9 °F 73.0 °F 57% 30.01 in 10.0 mi East 10.4 mph - N/A   Scattered Clouds
4:53 PM 89.1 °F 97.0 °F 73.0 °F 59% 30.00 in 10.0 mi Variable 8.1 mph - N/A   Scattered Clouds
5:53 PM 88.0 °F 97.5 °F 75.0 °F 65% 29.99 in 10.0 mi ESE 10.4 mph - N/A   Clear
6:53 PM 86.0 °F 92.2 °F 72.0 °F 63% 30.00 in 10.0 mi ESE 8.1 mph - N/A   Clear
7:53 PM 84.0 °F 91.2 °F 73.9 °F 72% 30.01 in 10.0 mi SSE 6.9 mph - N/A   Clear
8:53 PM 82.9 °F 89.4 °F 73.9 °F 74% 30.03 in 10.0 mi SSE 5.8 mph - N/A   Clear
9:53 PM 82.0 °F 87.9 °F 73.9 °F 76% 30.03 in 10.0 mi ESE 4.6 mph - N/A   Clear
10:53 PM 82.9 °F 90.2 °F 75.0 °F 77% 30.04 in 10.0 mi ESE 5.8 mph - N/A   Clear
11:53 PM 82.0 °F 87.9 °F 73.9 °F 76% 30.03 in 10.0 mi Calm Calm - N/A   Clear